This is the latest recevied weather packets stored in our database for station/object HS2LXA-13. If no packets are shown the sender has not sent any weather packets the latest 10 day(s).
| Time | Temp. | Humidity | Pressure | Rain* | Wind** | Luminosity | Snow |
|---|---|---|---|---|---|---|---|
| 1787390361 | 30° C | 89% | 1009.6 hPa | 0.25 mm | - | 0 W/m² | - |
| 1787389754 | 30.56° C | 90% | 1009.6 hPa | 0.25 mm | - | 0 W/m² | - |
| 1787389153 | 30.56° C | 90% | 1009.7 hPa | 0.25 mm | - | 0 W/m² | - |
| 1787388557 | 30.56° C | 89% | 1009.6 hPa | 0.25 mm | - | 0 W/m² | - |
| 1787387948 | 31.11° C | 88% | 1009.6 hPa | 0.25 mm | - | 0 W/m² | - |
| 1787387349 | 31.67° C | 88% | 1009.5 hPa | 0.25 mm | - | 0 W/m² | - |
| 1787386747 | 31.67° C | 89% | 1009.5 hPa | 0.25 mm | - | 0 W/m² | - |
| 1787386145 | 31.11° C | 89% | 1009.6 hPa | 0.25 mm | - | 0 W/m² | - |
| 1787384996 | 31.67° C | 88% | 1009.7 hPa | 0.25 mm | - | 0 W/m² | - |
| 1787384394 | 32.22° C | 89% | 1009.8 hPa | 0.25 mm | - | 0 W/m² | - |
| 1787383793 | 32.22° C | 88% | 1009.8 hPa | 0.25 mm | - | 0 W/m² | - |
| 1787383191 | 32.22° C | 88% | 1009.9 hPa | 0.25 mm | - | 0 W/m² | - |
| 1787382590 | 32.22° C | 89% | 1009.9 hPa | 0.25 mm | - | 0 W/m² | - |
| 1787381989 | 32.22° C | 88% | 1010 hPa | 0.25 mm | - | 0 W/m² | - |
| 1787381381 | 32.22° C | 89% | 1010.3 hPa | 0.25 mm | - | 0 W/m² | - |
| 1787380781 | 32.22° C | 88% | 1010.4 hPa | 0.25 mm | - | 0 W/m² | - |
| 1787380179 | 32.22° C | 88% | 1010.4 hPa | 0.25 mm | - | 0 W/m² | - |
| 1787379578 | 32.78° C | 89% | 1010.6 hPa | 0.25 mm | - | 0 W/m² | - |
| 1787378975 | 32.78° C | 89% | 1010.7 hPa | 0.25 mm | - | 0 W/m² | - |
| 1787378376 | 32.22° C | 90% | 1010.7 hPa | 0.25 mm | - | 0 W/m² | - |
| 1787377774 | 31.67° C | 90% | 1011 hPa | 0.25 mm | - | 0 W/m² | - |
| 1787377173 | 32.22° C | 92% | 1011.2 hPa | 0.25 mm | - | 0 W/m² | - |
| 1787376577 | 31.11° C | 92% | 1011.5 hPa | 0.25 mm | - | 0 W/m² | - |
| 1787375972 | 31.11° C | 91% | 1011.5 hPa | 0.25 mm | - | 0 W/m² | - |
| 1787375369 | 30.56° C | 91% | 1011.6 hPa | 0.25 mm | - | 0 W/m² | - |
* Rain latest hour (hover to see other rain measurements)
** Current wind speed in m/s (hover to see current wind gust speed)